This is the latest recevied weather packets stored in our database for station/object S53BL-10. If no packets are shown the sender has not sent any weather packets the latest 10 day(s).
| Time | Temp. | Humidity | Pressure | Rain* | Wind** | Luminosity | Snow |
|---|---|---|---|---|---|---|---|
| 1777163763 | 11.67° C | 59% | 1012 hPa | - | - | - | - |
| 1777162863 | 11.67° C | 57% | 1012.1 hPa | - | - | - | - |
| 1777161962 | 12.22° C | 54% | 1012 hPa | - | - | - | - |
| 1777161061 | 12.22° C | 53% | 1011.9 hPa | - | - | - | - |
| 1777160160 | 12.78° C | 51% | 1012.1 hPa | - | - | - | - |
| 1777159260 | 13.33° C | 49% | 1012.1 hPa | - | - | - | - |
| 1777158359 | 13.33° C | 50% | 1011.9 hPa | - | - | - | - |
| 1777157458 | 13.33° C | 51% | 1012 hPa | - | - | - | - |
| 1777156557 | 13.33° C | 49% | 1012.2 hPa | - | - | - | - |
| 1777155656 | 13.89° C | 46% | 1012 hPa | - | - | - | - |
| 1777154755 | 14.44° C | 45% | 1012 hPa | - | - | - | - |
| 1777153855 | 14.44° C | 44% | 1011.9 hPa | - | - | - | - |
| 1777152954 | 15° C | 42% | 1012 hPa | - | - | - | - |
| 1777152053 | 15° C | 40% | 1012 hPa | - | - | - | - |
| 1777151152 | 15° C | 42% | 1011.9 hPa | - | - | - | - |
| 1777150252 | 15.56° C | 41% | 1011.8 hPa | - | - | - | - |
| 1777149351 | 15.56° C | 40% | 1011.8 hPa | - | - | - | - |
| 1777148450 | 16.11° C | 39% | 1011.8 hPa | - | - | - | - |
| 1777147549 | 16.67° C | 37% | 1011.8 hPa | - | - | - | - |
| 1777146648 | 16.67° C | 37% | 1011.7 hPa | - | - | - | - |
| 1777145747 | 16.67° C | 37% | 1011.5 hPa | - | - | - | - |
| 1777144847 | 17.22° C | 36% | 1011.4 hPa | - | - | - | - |
| 1777143946 | 17.78° C | 36% | 1011.2 hPa | - | - | - | - |
| 1777143045 | 17.78° C | 36% | 1011.1 hPa | - | - | - | - |
| 1777142144 | 17.78° C | 35% | 1010.8 hPa | - | - | - | - |
* Rain since midnight (hover to see other rain measurements)
** Current wind speed in m/s (hover to see current wind gust speed)